Location: Cornospital
(48.0620°N, 3.3837°W)
Time: 21:17:42
(UTC+00:00)

Cosmos 1184 Rocket - Pass Details

Date: 17 June 2021
Orbit: 399 x 413 km, 81.2° (Epoch: 02 August)

Event Time Altitude Azimuth Distance (km) Brightness Sun altitude
Exits shadow 23:23:05 50° 128° (SE) 542 2.9 -17.6°
Maximum altitude 23:23:28 54° 98° (E) 514 3.0 -17.6°
Drops below altitude 10° 23:26:40 10° 20° (NNE) 1,503 6.4 -17.7°
Sets 23:28:44 0° 16° (NNE) 2,370 7.7 -17.8°
